Weather History for Pompano Beach, FL

Change the Weather History Date:

Monday, September 23, 2013

  Actual Average Record
Temperature  
Mean Temperature 72 °F -  
Max Temperature 88 °F 90 °F 93 °F (1967)
Min Temperature 57 °F 73 °F 57 °F (2013)
Cooling Degree Days 7    
Growing Degree Days 22 (Base 50)    
Moisture  
Dew Point 75 °F    
Average Humidity 84    
Maximum Humidity 100    
Minimum Humidity 65    
Precipitation  
Precipitation 0.69 in - - ()
Sea Level Pressure  
Sea Level Pressure 29.94 in    
Wind  
Wind Speed 3 mph (South)    
Max Wind Speed 23 mph    
Max Gust Speed 39 mph    
Visibility 9 miles    
Events Fog , Rain , Thunderstorm    
Averages and records for this station are not official NWS values.
T = Trace of Precipitation, MM = Missing Value Source: NWS Daily Summary

Daily Weather History Graph

Daily Weather History Graph

Search for Another Location

Airport:

Trip Planner

Search our weather history database for the weather conditions in past years. The results will help you decide how hot, cold, wet, or windy it might be!

Date:

Astronomy

Sep. 23, 2013 Rise Set
Actual Time 7:09 AM EDT 7:15 PM EDT
Civil Twilight 6:46 AM EDT 7:38 PM EDT
Nautical Twilight 6:19 AM EDT 8:05 PM EDT
Astronomical Twilight 5:52 AM EDT 8:32 PM EDT
Moon 10:13 PM EDT (9/23) 11:01 AM EDT (9/23)
Length of Visible Light 12h 52m
Length of Day
12h 05m
Waning Gibbous, 81% of the Moon is Illuminated
Sep 23
Waning Gibbous
Sep 26
Last Quarter
Oct 4
New
Oct 11
First Quarter
Oct 18
Full

Hourly Weather History & Observations

Time (EDT) Temp. Heat Index Dew Point Humidity Pressure Visibility Wind Dir Wind Speed Gust Speed Precip Events Conditions
12:53 AM 82.0 °F 88.6 °F 75.0 °F 79% 29.89 in 10.0 mi SW 3.5 mph - N/A   Unknown
1:53 AM 81.0 °F 86.7 °F 75.0 °F 82% 29.89 in 10.0 mi Calm Calm - N/A   Unknown
2:53 AM 81.0 °F 86.7 °F 75.0 °F 82% 29.88 in 10.0 mi Calm Calm - N/A   Unknown
3:53 AM 80.1 °F 85.1 °F 75.0 °F 85% 29.88 in 10.0 mi Calm Calm - N/A   Unknown
4:53 AM 79.0 °F - 75.0 °F 88% 29.88 in 10.0 mi Calm Calm - N/A   Unknown
5:53 AM 80.1 °F 85.1 °F 75.0 °F 85% 29.88 in 10.0 mi Calm Calm - N/A   Unknown
6:53 AM 80.1 °F 85.1 °F 75.0 °F 85% 29.90 in 10.0 mi Calm Calm - N/A   Unknown
7:53 AM 80.1 °F 85.4 °F 75.9 °F 87% 29.93 in 10.0 mi Calm Calm - N/A   Mostly Cloudy
8:53 AM 82.0 °F 89.4 °F 75.9 °F 82% 29.93 in 10.0 mi South 4.6 mph - N/A   Mostly Cloudy
9:53 AM 84.9 °F 94.1 °F 75.9 °F 74% 29.95 in 10.0 mi South 6.9 mph - N/A   Mostly Cloudy
10:53 AM 87.1 °F 95.4 °F 73.9 °F 65% 29.95 in 10.0 mi Variable 3.5 mph - N/A   Mostly Cloudy
11:53 AM 86.0 °F 93.8 °F 73.9 °F 67% 29.95 in 10.0 mi SW 8.1 mph - N/A   Mostly Cloudy
12:53 PM 86.0 °F 95.1 °F 75.0 °F 70% 29.95 in 10.0 mi SW 6.9 mph - N/A   Mostly Cloudy
1:53 PM 87.1 °F 98.8 °F 77.0 °F 72% 29.93 in 10.0 mi SE 10.4 mph - N/A   Mostly Cloudy
2:17 PM 84.2 °F 92.3 °F 75.2 °F 74% 29.96 in 1.0 mi SW 23.0 mph 32.2 mph 0.00 in Rain , Thunderstorm Heavy Thunderstorms and Rain
2:26 PM 77.0 °F - 73.4 °F 89% 29.97 in 0.2 mi South 8.1 mph 39.1 mph 0.52 in Fog , Rain , Thunderstorm Heavy Thunderstorms and Rain
2:44 PM 57.2 °F - 57.2 °F 100% 29.95 in 2.0 mi Calm Calm - 0.66 in Rain , Thunderstorm Heavy Thunderstorms and Rain
2:51 PM 75.2 °F - 73.4 °F 94% 29.95 in 4.0 mi Calm Calm - 0.67 in Rain , Thunderstorm Thunderstorms and Rain
2:53 PM 75.9 °F - 73.0 °F 91% 29.95 in 5.0 mi Calm Calm - 0.67 in Rain , Thunderstorm Thunderstorms and Rain
3:27 PM 77.0 °F - 73.4 °F 89% 29.94 in 10.0 mi Calm Calm - 0.02 in Rain Light Rain
3:53 PM 78.1 °F - 73.9 °F 87% 29.94 in 8.0 mi South 3.5 mph - N/A Rain Light Rain
4:53 PM 80.1 °F 85.1 °F 75.0 °F 85% 29.92 in 10.0 mi Calm Calm - 0.02 in Rain Light Rain
5:53 PM 81.0 °F 86.2 °F 73.9 °F 79% 29.94 in 10.0 mi Calm Calm - 0.00 in   Mostly Cloudy
6:53 PM 81.0 °F 87.3 °F 75.9 °F 85% 29.95 in 10.0 mi East 3.5 mph - N/A   Scattered Clouds
7:53 PM 81.0 °F 87.9 °F 77.0 °F 88% 29.96 in 10.0 mi ESE 4.6 mph - N/A   Unknown
8:53 PM 82.0 °F 91.0 °F 78.1 °F 88% 29.97 in 10.0 mi Calm Calm - N/A   Unknown
9:08 PM 82.4 °F 92.4 °F 78.8 °F 89% 29.98 in 10.0 mi Calm Calm - N/A Thunderstorm Unknown
9:39 PM 82.4 °F 92.4 °F 78.8 °F 89% 29.98 in 10.0 mi SSE 3.5 mph - N/A   Unknown
9:53 PM 82.9 °F 92.8 °F 78.1 °F 85% 29.98 in 10.0 mi Calm Calm - N/A   Unknown
10:53 PM 81.0 °F 88.6 °F 78.1 °F 91% 29.98 in 10.0 mi Calm Calm - N/A   Unknown
11:53 PM 81.0 °F 88.6 °F 78.1 °F 91% 29.98 in 10.0 mi Calm Calm - N/A   Unknown